Location: *
(42.0175°N, 9.4056°E)
Time: 09:37:49
(UTC+00:00)

Cosmos 2150 Rocket - Pass Details

Date: 25 August 2019
Orbit: 748 x 808 km, 74.0° (Epoch: 22 October)

Event Time Altitude Azimuth Distance (km) Brightness Sun altitude
Exits shadow 20:49:30 37° 225° (SW) 1,164 4.8 -26.5°
Maximum altitude 20:51:27 63° 292° (WNW) 841 4.3 -26.7°
Drops below altitude 10° 20:56:37 10° 14° (NNE) 2,302 6.9 -27.4°
Sets 20:59:03 0° 17° (NNE) 3,240 7.6 -27.7°
